User: anonymous
Location: Waldport
(44.4270°N, 124.0680°W)
Time: 16:49:17
(UTC-07:00)
Language:

Cosmos 1023 Rocket - Orbit

View from above orbital plane
View from above orbital plane
View from above satellite
View from above satellite

Ground track
Ground track

The orbit data is extracted from the following two-line orbital elements,

1 10962U 78063B   14245.11080525  .00000125  00000-0  47158-4 0  8233
2 10962 074.0804 299.7807 0024097 104.7810 280.2335 14.40694474899101
Epoch (UTC): 02 September 2014 02:39:33
Eccentricity: 0.0024097
inclination: 74.0804°
perigee height: 739 km
apogee height: 773 km
right ascension of ascending node: 299.7807°
argument of perigee: 104.7810°
revolutions per day: 14.40694474
mean anomaly at epoch: 280.2335°
orbit number at epoch: 89910

The dashed part of the orbit path shows where the satellite is in the earth's shadow,  

DLR